Вернуться в каталог

BEIJING-3

АктивенНаукаSSO
NORAD 48843·PAYLOAD·🇨🇳 China
Это название спутника еще не подтверждено официальными источниками.

Запущен Jun 11, 2021 с Taiyuan Satellite Launch Center

Loading…

Ближайшие Пролёты (ближайшие 24 часа)

TLE

СвежийSource: Space-Track

Эпоха: Sep 14, 2026, 15:39 UTC

1 48843U 21050D   26257.65238382  .00003105  00000-0  13593-3 0  9997
2 48843  97.3271 331.6533 0009953 310.4446  49.5922 15.22731610292585

Отслеживайте BEIJING-3 в реальном времени с AllMySat

Download on the App Store